Weather History for Waterloo, IA

Change the Weather History Date:

Wednesday, June 26, 2013

  Actual Average Record
Temperature  
Mean Temperature 77 °F 73 °F  
Max Temperature 87 °F 84 °F 105 °F (1931)
Min Temperature 67 °F 62 °F 40 °F (1926)
Degree Days  
Heating Degree Days 0 0  
Month to date heating degree days 38 23  
Since 1 June heating degree days 38 23  
Since 1 July heating degree days 7271 7027  
Cooling Degree Days 12 8  
Month to date cooling degree days 144 145  
Year to date cooling degree days 197 201  
Since 1 June cooling degree days 144 145  
Growing Degree Days 26 (Base 50)    
Moisture  
Dew Point 69 °F    
Average Humidity 81    
Maximum Humidity 97    
Minimum Humidity 65    
Precipitation  
Precipitation 0.30 in 0.18 in 3.22 in (2005)
Month to date precipitation 4.43 4.28  
Year to date precipitation 28.01 16.40  
Snow  
Snow 0.00 in 0.00 in - ()
Month to date snowfall 0.0 0.0  
Since 1 June snowfall 0.0 0.0  
Since 1 July snowfall 50.0 35.3  
Snow Depth 0.00 in    
Sea Level Pressure  
Sea Level Pressure 29.72 in    
Wind  
Wind Speed 7 mph (South)    
Max Wind Speed 31 mph    
Max Gust Speed 40 mph    
Visibility 10 miles    
Events Rain , Thunderstorm    
T = Trace of Precipitation, MM = Missing Value Source: NWS Daily Summary

Daily Weather History Graph

Daily Weather History Graph

Search for Another Location

Airport:

Trip Planner

Search our weather history database for the weather conditions in past years. The results will help you decide how hot, cold, wet, or windy it might be!

Date:

Astronomy

Jun. 26, 2013 Rise Set
Actual Time 5:33 AM CDT 8:51 PM CDT
Civil Twilight 4:58 AM CDT 9:26 PM CDT
Nautical Twilight 4:13 AM CDT 10:11 PM CDT
Astronomical Twilight 3:18 AM CDT 11:06 PM CDT
Moon 11:08 PM CDT (6/26) 9:31 AM CDT (6/26)
Length of Visible Light 16h 27m
Length of Day
15h 17m
Waning Gibbous, 85% of the Moon is Illuminated
Jun 26
Waning Gibbous
Jun 29
Last Quarter
Jul 8
New
Jul 15
First Quarter
Jul 22
Full

Hourly Weather History & Observations

Time (CDT) Temp. Heat Index Dew Point Humidity Pressure Visibility Wind Dir Wind Speed Gust Speed Precip Events Conditions
12:09 AM 78.8 °F - 71.6 °F 78% 29.71 in 10.0 mi SSE 8.1 mph - N/A   Mostly Cloudy
12:54 AM 77.0 °F - 72.0 °F 84% 29.68 in 10.0 mi SSE 5.8 mph - 0.00 in Rain , Thunderstorm Light Thunderstorms and Rain
1:30 AM 71.6 °F - 69.8 °F 94% 29.69 in 10.0 mi ENE 15.0 mph - 0.04 in Rain , Thunderstorm Light Rain
1:54 AM 68.0 °F - 66.0 °F 93% 29.66 in 6.0 mi East 28.8 mph 36.8 mph 0.06 in Rain , Thunderstorm Heavy Thunderstorms and Rain
2:30 AM 68.0 °F - 66.2 °F 94% 29.70 in 10.0 mi SSE 10.4 mph - 0.09 in Thunderstorm Thunderstorm
2:40 AM 68.0 °F - 66.2 °F 94% 29.72 in 10.0 mi SSE 8.1 mph - 0.09 in Thunderstorm Thunderstorm
2:54 AM 68.0 °F - 66.0 °F 93% 29.70 in 10.0 mi ENE 5.8 mph - 0.11 in Rain , Thunderstorm Light Rain
3:26 AM 68.0 °F - 66.2 °F 94% 29.70 in 10.0 mi SSE 8.1 mph - 0.01 in   Overcast
3:54 AM 69.1 °F - 66.9 °F 93% 29.68 in 10.0 mi SSE 5.8 mph - 0.01 in   Mostly Cloudy
4:54 AM 68.0 °F - 66.0 °F 93% 29.68 in 10.0 mi SSE 8.1 mph - N/A   Overcast
5:45 AM 68.0 °F - 64.4 °F 88% 29.72 in 6.0 mi South 9.2 mph - 0.00 in Rain , Thunderstorm Light Rain
5:54 AM 66.9 °F - 64.9 °F 93% 29.70 in 3.0 mi ESE 6.9 mph - 0.13 in Rain Light Rain
6:54 AM 68.0 °F - 66.0 °F 93% 29.69 in 10.0 mi Variable 5.8 mph - 0.00 in   Overcast
7:54 AM 71.1 °F - 64.9 °F 81% 29.70 in 10.0 mi SSE 4.6 mph - N/A   Mostly Cloudy
8:06 AM 71.6 °F - 64.4 °F 78% 29.72 in 10.0 mi SE 4.6 mph - N/A   Overcast
8:54 AM 71.1 °F - 64.9 °F 81% 29.73 in 10.0 mi South 4.6 mph - N/A   Overcast
9:54 AM 73.9 °F - 66.0 °F 76% 29.73 in 10.0 mi SSW 6.9 mph - 0.00 in   Overcast
10:54 AM 75.9 °F - 66.9 °F 74% 29.70 in 10.0 mi SSE 11.5 mph - N/A   Overcast
11:54 AM 75.9 °F - 69.1 °F 79% 29.72 in 10.0 mi SSW 9.2 mph - N/A   Overcast
12:06 PM 77.0 °F - 69.8 °F 78% 29.75 in 10.0 mi SSW 9.2 mph - N/A   Mostly Cloudy
12:27 PM 78.8 °F - 71.6 °F 78% 29.75 in 10.0 mi SSW 9.2 mph - N/A   Mostly Cloudy
12:45 PM 80.6 °F 84.6 °F 71.6 °F 74% 29.75 in 10.0 mi SSW 11.5 mph - N/A   Mostly Cloudy
12:54 PM 81.0 °F 85.8 °F 73.0 °F 77% 29.73 in 10.0 mi SSW 8.1 mph - N/A   Mostly Cloudy
1:54 PM 81.0 °F 85.2 °F 72.0 °F 74% 29.73 in 10.0 mi SSW 5.8 mph - N/A   Mostly Cloudy
2:54 PM 80.1 °F 84.5 °F 73.9 °F 81% 29.72 in 10.0 mi Calm Calm - N/A   Partly Cloudy
3:54 PM 82.0 °F 87.9 °F 73.9 °F 76% 29.72 in 10.0 mi Calm Calm - N/A   Mostly Cloudy
4:54 PM 86.0 °F 93.8 °F 73.9 °F 67% 29.74 in 10.0 mi West 4.6 mph - N/A   Clear
5:54 PM 86.0 °F 93.8 °F 73.9 °F 67% 29.73 in 10.0 mi WNW 6.9 mph - N/A   Partly Cloudy
6:54 PM 86.0 °F 93.8 °F 73.9 °F 67% 29.72 in 10.0 mi WNW 5.8 mph - N/A   Clear
7:54 PM 82.9 °F 87.5 °F 71.1 °F 67% 29.72 in 10.0 mi NW 8.1 mph - N/A   Clear
8:54 PM 77.0 °F - 66.9 °F 71% 29.76 in 10.0 mi NW 6.9 mph - N/A   Clear
9:54 PM 73.9 °F - 66.9 °F 79% 29.79 in 10.0 mi Calm Calm - N/A   Clear
10:54 PM 70.0 °F - 68.0 °F 93% 29.80 in 10.0 mi West 3.5 mph - N/A   Clear
11:54 PM 70.0 °F - 68.0 °F 93% 29.81 in 10.0 mi West 4.6 mph - N/A   Clear